[Date Prev][Date Next][Thread Prev][Thread Next] - [Date Index][Thread Index][Author Index]
2 Line ISS Keps 2-2
- Subject: [sarex] 2 Line ISS Keps 2-2
- From: "Dave Larsen PhD" <doc@xxxxxxxxxxx>
- Date: Wed, 1 Feb 2006 19:40:33 -0800
ISS
1 25544U 98067A 06032.98310185 .00010993 00000-0 78303-4 0 2671
2 25544 051.6438 162.7843 0009203 223.7064 295.7123 15.74405489411853
----
Via the sarex mailing list at AMSAT.ORG courtesy of AMSAT-NA.
To unsubscribe, send "unsubscribe sarex" to Majordomo@amsat.org
AMSAT Home